Location: Unspecified
(0.0000°N, 0.0000°E)
Time: 04:17:18
(UTC+00:00)

BEESAT 2 - Visible Passes

Search period start: 18 May 2021 00:00
Search period end: 28 May 2021 00:00
Orbit: 492 x 527 km, 64.9° (Epoch: 17 May)

Date Brightness Start Highest point End Pass type
(mag) Time Alt. Az. Time Alt. Az. Time Alt. Az.
18 May ? 05:10:36 15° WSW 05:12:57 26° WNW 05:16:15 10° N visible
19 May ? 04:54:27 24° W 04:55:19 27° WNW 04:58:40 10° N visible
20 May ? 04:38:12 27° NW 04:38:12 27° NW 04:41:05 10° N visible
21 May ? 04:21:52 20° NNW 04:21:52 20° NNW 04:23:30 10° N visible
22 May ? 04:05:26 13° N 04:05:26 13° N 04:05:54 10° N visible
